Вернуться в каталог

QIANFAN-98

АктивенСвязьPO
NORAD 66040·PAYLOAD·🇨🇳 China

Запущен Oct 17, 2025 с Taiyuan Satellite Launch Center

Loading…

Ближайшие Пролёты (ближайшие 24 часа)

TLE

СвежийSource: Space-Track

Эпоха: Sep 14, 2026, 07:59 UTC

1 66040U 25233H   26257.33306357  .00000072  00000-0  93211-4 0  9992
2 66040  89.0039  33.8985 0001527 109.0106 251.1210 13.51028566 45362

Отслеживайте QIANFAN-98 в реальном времени с AllMySat

Download on the App Store